Location: Maccacari
(45.1333°N, 11.1333°E)
Time: 08:04:35
(UTC+00:00)

DELTA 2 R/B (1) - Pass Details

Date: 18 September 2020
Orbit: 790 x 803 km, 39.6° (Epoch: 29 October)

Event Time Altitude Azimuth Distance (km) Brightness Sun altitude
Rises 17:50:36 0° 267° (W) 3,278 8.9 -6.2°
Reaches altitude 10° 17:53:11 10° 261° (W) 2,348 7.5 -6.6°
Maximum altitude 17:58:23 43° 191° (S) 1,095 4.3 -7.6°
Drops below altitude 10° 18:03:36 10° 121° (ESE) 2,348 5.4 -8.5°
Enters shadow 18:03:53 - 120° (ESE) 2,448 5.5 -8.5°
